Snowfall_Accumulation
0.0 0.0 0.0 0.0 0.0 0.0 0.0 0.0 0.1 0.2 0.0 0.0 0.0 0.0 0.0 0.0 0.0 0.0 0.0 0.0 0.0 0.0 0.0 0.0 0.0 0.0 0.0 0.0 0.0 0.0 0.0 0.0 0.0 0.0 0.0 0.0 0.0 0.0
0.0 0.0 0.0 0.0 0.0 0.0 0.0 0.0 0.0 0.2 0.2 0.0 0.0 0.0 0.0 0.0 0.0 0.0 0.0 0.0 0.0 0.0 0.0 0.0 0.0 0.0 0.0 0.0 0.0 0.0 0.0 0.0 0.0 0.0 0.0 0.0 0.0 0.0
0.0 0.0 0.0 0.0 0.0 0.0 0.0 0.0 0.0 0.2 0.4 0.1 0.0 0.1 0.0 0.0 0.0 0.0 0.0 0.0 0.0 0.1 0.1 0.1 0.1 0.1 0.1 0.1 0.0 0.0 0.0 0.0 0.0 0.0 0.0 0.0 0.0 0.0
0.0 0.0 0.0 0.0 0.0 0.0 0.0 0.0 0.1 0.1 0.5 0.9 0.6 0.5 0.4 0.2 0.2 0.2 0.1 0.1 0.1 0.1 0.1 0.2 0.3 0.2 0.2 0.2 0.2 0.1 0.1 0.1 0.0 0.0 0.0 0.0 0.0 0.0
0.0 0.0 0.1 0.1 0.1 0.1 0.1 0.1 0.3 0.4 0.9 1.4 0.7 0.3 0.3 0.2 0.2 0.1 0.1 0.1 0.0 0.0 0.1 0.1 0.2 0.3 0.4 0.4 0.3 0.3 0.2 0.1 0.1 0.1 0.1 0.0 0.0 0.0
0.1 0.1 0.1 0.1 0.3 0.5 0.7 0.7 1.4 1.2 1.1 1.5 1.5 1.1 0.8 0.5 0.5 0.6 0.5 0.3 0.2 0.1 0.0 0.1 0.1 0.3 0.3 0.2 0.3 0.3 0.4 0.4 0.4 0.4 0.3 0.3 0.2 0.1
0.2 0.3 0.4 0.4 0.3 0.5 0.9 1.3 1.3 1.7 2.3 2.8 2.6 1.8 1.0 0.7 0.6 0.7 0.8 0.5 0.3 0.2 0.2 0.1 0.2 0.2 0.1 0.1 0.1 0.1 0.2 0.4 0.5 0.6 0.6 0.5 0.4 0.3
0.7 0.7 0.9 0.8 0.5 0.5 0.6 0.9 1.7 2.9 3.6 4.0 3.6 2.7 1.4 0.9 0.8 1.1 1.6 2.2 1.6 0.3 0.4 0.3 0.1 0.1 0.1 0.1 0.1 0.2 0.5 0.7 0.9 0.9 0.8 0.8 0.5 0.4
1.1 1.1 1.0 0.9 0.8 0.6 0.6 1.1 1.6 2.1 2.8 3.1 2.9 1.8 1.4 1.2 2.0 3.0 3.0 3.3 2.3 0.6 0.6 0.7 0.2 0.2 0.1 0.1 0.2 0.3 0.4 0.6 0.8 0.8 0.9 0.8 0.7 0.5
0.8 0.7 0.7 0.5 0.5 1.0 1.5 2.0 1.6 1.2 1.1 1.0 1.2 1.2 1.2 1.4 2.5 4.1 3.8 2.7 1.1 0.5 0.4 1.4 0.6 0.4 0.2 0.1 0.1 0.1 0.3 0.4 0.7 0.9 0.9 0.9 0.9 0.7
0.8 0.7 0.7 0.6 0.8 2.0 2.9 2.9 1.7 0.6 0.4 0.6 1.1 1.0 1.0 1.0 1.1 2.6 3.9 5.1 3.7 0.9 0.6 1.3 0.8 0.7 0.3 0.1 0.0 0.2 0.4 0.5 0.6 0.8 1.0 0.9 1.0 0.8
0.9 0.7 0.7 0.9 1.6 2.9 3.2 3.1 2.0 0.9 1.1 0.9 0.6 0.4 0.3 0.2 0.5 2.1 6.0 10.4 8.2 4.2 0.6 1.7 2.1 2.8 4.0 0.7 0.7 0.6 0.5 0.5 0.9 0.8 0.8 0.9 0.9 1.2
1.3 0.7 0.5 1.2 2.3 2.8 2.4 1.5 1.6 2.3 2.0 1.0 0.6 0.4 0.4 0.4 0.5 0.9 3.0 9.3 12.5 8.1 1.9 5.2 7.1 4.7 7.2 4.0 1.2 0.6 0.7 1.3 1.6 1.3 0.8 0.9 1.1 1.8
1.7 0.9 0.9 1.8 2.0 1.5 0.9 1.0 1.8 2.0 1.3 1.4 1.4 1.3 1.4 1.2 1.2 1.3 1.5 2.8 5.8 7.3 4.4 7.9 12.8 9.5 11.8 9.0 4.0 1.8 1.4 2.2 3.6 3.5 2.3 1.6 1.3 1.2
1.5 1.7 1.9 1.5 1.1 0.7 0.7 1.1 1.3 1.8 2.6 3.6 3.6 2.9 2.1 2.1 1.9 2.5 2.6 3.0 3.9 5.3 5.9 7.0 10.5 11.4 12.9 12.4 8.2 5.8 6.0 3.6 3.5 5.6 5.3 3.6 2.5 1.6
1.8 1.7 1.5 0.9 0.9 1.1 1.3 1.5 1.7 2.3 3.9 5.1 4.6 3.6 3.2 3.8 4.1 5.4 6.8 7.1 7.8 6.8 6.0 5.6 6.9 10.0 11.3 8.5 9.2 8.5 8.4 10.5 7.7 7.3 6.0 4.7 3.0 2.3
2.8 1.7 1.3 1.6 1.5 1.9 1.9 1.8 2.1 2.6 3.4 4.2 4.8 5.0 4.8 5.4 6.4 7.5 9.2 10.3 10.7 9.1 7.6 5.6 4.7 5.3 6.9 8.0 8.7 7.4 8.1 10.3 7.8 6.9 5.5 6.0 4.0 2.1
2.5 2.6 2.5 2.6 2.8 2.6 2.7 2.7 3.1 3.3 4.1 5.6 6.1 6.6 7.5 8.1 8.9 9.2 10.7 12.1 11.6 9.3 7.6 5.9 5.1 5.1 4.5 4.4 5.7 8.2 9.4 10.5 8.5 4.7 5.0 7.6 6.1 3.1
2.2 3.2 3.3 3.4 3.4 3.3 3.7 4.1 4.4 4.4 5.7 7.6 8.3 9.0 9.9 10.2 10.9 11.6 11.7 11.6 10.4 8.4 7.0 6.0 7.0 11.0 12.4 8.5 5.1 6.7 11.5 12.0 8.2 6.6 5.6 6.3 7.1 3.8
2.2 2.9 3.4 3.6 3.6 4.0 4.4 5.3 5.8 6.1 7.1 8.3 9.2 9.8 11.4 12.7 13.1 12.5 11.9 11.4 10.5 8.4 6.3 4.9 6.1 10.7 16.7 14.9 11.5 8.7 6.7 10.9 12.4 10.8 6.4 3.9 3.3 2.4
2.6 2.5 2.6 3.1 4.0 4.4 5.0 5.8 7.0 8.2 9.4 11.1 11.5 11.9 12.6 14.5 14.8 12.5 11.3 9.9 9.4 8.6 7.4 5.3 4.7 6.7 10.6 13.4 12.9 10.3 10.0 6.4 7.3 11.8 11.9 10.9 9.2 7.1
3.1 3.3 3.1 3.2 3.9 4.6 5.4 6.4 7.9 8.9 10.1 11.2 11.7 12.0 12.5 13.9 13.8 11.4 9.6 9.1 8.4 7.9 7.1 5.6 4.7 6.0 9.1 12.7 12.0 9.4 9.2 8.1 5.2 3.8 5.2 9.1 16.4 17.9
4.1 4.1 4.0 4.0 4.7 5.1 6.1 7.1 8.5 9.5 10.4 12.0 12.4 12.0 11.7 11.3 9.7 9.0 8.6 8.6 8.8 8.1 7.5 7.1 6.0 6.1 7.3 8.9 9.9 9.3 8.1 7.3 7.0 7.2 8.3 4.0 4.1 4.5